Location: Augsburg
(48.3836°N, 10.8929°E)
Time: 17:54:52
(UTC+02:00)

ISS - Pass Details

Date: 19 May 2021
Orbit: 417 x 422 km, 51.6° (Epoch: 13 June)

Event Time Altitude Azimuth Distance (km) Brightness Sun altitude
Rises 00:29:29 0° 285° (WNW) 2,369 0.4 -21.2°
Reaches altitude 10° 00:31:37 10° 291° (WNW) 1,505 -0.6 -21.2°
Maximum altitude 00:34:55 49° 7° (N) 551 -2.9 -21.3°
Enters shadow 00:36:23 28° 69° (ENE) 834 -2.2 -21.4°
